Location: Oberwangen
(47.4286°N, 8.9679°E)
Time: 05:43:03
(UTC+00:00)

Cosmos 968 Rocket - Pass Details

Date: 20 June 2021
Orbit: 741 x 770 km, 74.0° (Epoch: 28 July)

Event Time Altitude Azimuth Distance (km) Brightness Sun altitude
Rises 21:22:40 0° 336° (NNW) 3,190 8.7 -13.9°
Reaches altitude 10° 21:25:02 10° 334° (NNW) 2,264 7.4 -14.1°
Maximum altitude 21:30:08 73° 251° (WSW) 782 3.5 -14.5°
Enters shadow 21:33:29 22° 170° (S) 1,602 4.6 -14.7°
